Location: Hiram
(41.3130°N, 81.1440°W)
Time: 17:30:12
(UTC-04:00)

Amateur Radio Satellites - All Passes

Search period start: 24 May 2016 17:00
Search period end: 25 May 2016 17:00
Location: Hiram, 41.3130°N, 81.1440°W

Satellite Date Start Highest point End Downlink Frequencies (MHz)
Time Altitude Azimuth
AIST 2 24 May 17:04:05 17:06:36 15° 318° (NW) 17:09:07 435.215
BEESAT 24 May 17:09:02 17:12:10 18° 297° (WNW) 17:15:20 436.000
MOZHAYETS 4 24 May 17:13:14 17:17:49 60° 101° (E) 17:22:23
CUTE-I 24 May 17:19:19 17:21:36 13° 58° (ENE) 17:23:53 437.470
RS-15 24 May 17:20:32 17:29:46 31° 103° (ESE) 17:39:22 29.354- 29.394
AO-85 24 May 17:22:32 17:26:38 32° 247° (WSW) 17:30:24 145.980
KKS-1 24 May 17:24:00 17:28:27 78° 285° (WNW) 17:32:51 437.445
NOAA 18 24 May 17:38:50 17:43:12 25° 64° (ENE) 17:47:35 137.9125
LilacSat-2 24 May 17:40:20 17:41:12 11° 64° (ENE) 17:42:03 437.200
AO-7 24 May 17:44:30 17:51:06 26° 266° (W) 17:57:47 29.400- 29.500
HORYU 2 24 May 17:48:50 17:53:05 45° 261° (W) 17:57:21 437.375
Cosmos 2504 24 May 18:08:45 18:15:18 40° 88° (E) 18:22:08 435.465 / 435.565
Cubesat XI-IV 24 May 18:08:48 18:13:33 35° 68° (ENE) 18:18:20 437.490
STARS 24 May 18:09:37 18:13:49 48° 288° (WNW) 18:18:00 437.465
BRITE-PL 24 May 18:16:01 18:21:17 45° 70° (ENE) 18:26:41 437.365/2234.400
NOAA 15 24 May 18:16:15 18:21:27 60° 72° (ENE) 18:26:42 137.62
PCSat 24 May 18:27:28 18:29:36 12° 37° (NE) 18:31:45 145.827
CUBESAT XI-V 24 May 18:28:57 18:33:27 43° 98° (E) 18:37:55 437.345
DOVE 4 24 May 18:30:25 18:33:20 15° 63° (ENE) 18:36:14 437.250
YUBILEINY 24 May 18:44:29 18:52:22 37° 289° (WNW) 19:00:17 435.215
Cosmos 2491 24 May 18:45:34 18:49:54 15° 285° (WNW) 18:54:14 435.465 / 435.565
MOZHAYETS 4 24 May 18:51:55 18:54:29 15° 297° (WNW) 18:57:03
CUTE-I 24 May 18:55:33 19:00:52 89° 255° (WSW) 19:06:13 437.470
GOMX 1 24 May 18:58:42 19:04:03 54° 73° (ENE) 19:09:20 467.674
HO-68 24 May 19:02:13 19:07:08 21° 56° (NE) 19:12:04 435.675
LilacSat-2 24 May 19:11:15 19:15:00 58° 259° (W) 19:18:46 437.200
O/OREOS (USA 219) 24 May 19:16:42 19:18:09 11° 50° (NE) 19:19:35 437.305
NOAA 18 24 May 19:18:23 19:23:35 45° 260° (W) 19:28:49 137.9125
CINEMA 3 24 May 19:26:42 19:29:27 15° 64° (ENE) 19:32:08 145.822/145.860
RS-15 24 May 19:29:39 19:41:00 76° 305° (NW) 19:53:05 29.354- 29.394
Cubesat XI-IV 24 May 19:49:01 19:53:37 30° 264° (W) 19:58:16 437.490
COMPASS 1 24 May 19:51:33 19:52:53 11° 63° (ENE) 19:54:13 437.405
AUBIESAT-1 24 May 19:53:32 19:57:39 51° 69° (ENE) 20:01:29 437.475
BRITE-PL 24 May 19:55:15 19:59:52 26° 267° (W) 20:04:37 437.365/2234.400
M-CUBED/EXP-1 PRIME 24 May 19:56:55 20:01:14 71° 70° (ENE) 20:05:13 437.505
AAUSAT CUBESAT 2 24 May 19:58:00 19:58:53 11° 62° (ENE) 19:59:46 437.432
NOAA 15 24 May 19:58:11 20:01:37 17° 268° (W) 20:05:03 137.62
STRAND 1 24 May 20:00:59 20:05:30 30° 96° (E) 20:10:00 437.568
Cosmos 2504 24 May 20:02:11 20:08:41 36° 288° (WNW) 20:15:31 435.465 / 435.565
DOVE 4 24 May 20:05:10 20:10:27 73° 259° (WSW) 20:15:36 437.250
CUBESAT XI-V 24 May 20:07:04 20:10:31 21° 295° (WNW) 20:13:58 437.345
PCSat 24 May 20:08:46 20:14:10 61° 58° (ENE) 20:19:30 145.827
CANX-2 24 May 20:21:42 20:25:47 54° 74° (ENE) 20:29:54 2200.000
SEEDS 24 May 20:31:30 20:35:26 43° 72° (ENE) 20:39:25 437.485
GOMX 1 24 May 20:38:21 20:42:22 21° 269° (W) 20:46:23 467.674
CUBEBUG 2 24 May 20:38:21 20:41:56 25° 69° (ENE) 20:45:26 437.445
CUTE-I 24 May 20:40:48 20:41:37 10° 272° (W) 20:42:26 437.470
Oscar 11 24 May 20:41:51 20:44:09 14° 64° (ENE) 20:46:29 145.826/435.025
HO-68 24 May 20:46:52 20:54:01 83° 254° (WSW) 21:01:13 435.675
ZACube-1 24 May 20:49:14 20:51:38 15° 65° (ENE) 20:54:01 437.345
CUTE 1.7 + AOD 2 24 May 20:49:31 20:53:42 83° 255° (WSW) 20:57:56 437.475
O/OREOS (USA 219) 24 May 20:53:42 20:58:12 86° 251° (WSW) 21:02:40 437.305
CINEMA 3 24 May 21:01:22 21:06:08 60° 259° (W) 21:10:44 145.822/145.860
BEESAT 3 24 May 21:06:57 21:10:18 26° 48° (NE) 21:13:38 437.485
UWE-3 24 May 21:13:35 21:17:40 40° 72° (ENE) 21:21:38 435.000/436.395/437.385
AIST 1 24 May 21:17:41 21:20:08 15° 85° (E) 21:22:36
COMPASS 1 24 May 21:23:47 21:27:53 65° 259° (W) 21:32:01 437.405
FUNcube-1 24 May 21:27:30 21:31:22 35° 71° (ENE) 21:35:12 145.935
AAUSAT CUBESAT 2 24 May 21:29:41 21:33:47 70° 259° (W) 21:37:55 437.432
AUBIESAT-1 24 May 21:30:12 21:32:18 13° 262° (W) 21:34:19 437.475
M-CUBED/EXP-1 PRIME 24 May 21:35:38 21:36:02 10° 263° (W) 21:36:27 437.505
PRISM 24 May 21:38:28 21:42:35 54° 100° (E) 21:46:39 437.425
STRAND 1 24 May 21:40:05 21:44:39 33° 292° (WNW) 21:49:12 437.568
RS-15 24 May 21:46:05 21:55:56 30° 334° (NNW) 22:06:12 29.354- 29.394
PCSat 24 May 21:53:21 21:57:02 19° 255° (WSW) 22:00:42 145.827
CANX-2 24 May 22:00:11 22:01:59 12° 270° (W) 22:03:47 2200.000
BEESAT 2 24 May 22:02:45 22:06:41 54° 54° (NE) 22:10:35 435.950
SEEDS 24 May 22:08:54 22:11:22 15° 268° (W) 22:13:50 437.485
CUBEBUG 2 24 May 22:14:33 22:18:27 29° 264° (W) 22:22:15 437.445
Oscar 11 24 May 22:15:39 22:19:51 53° 260° (W) 22:24:04 145.826/435.025
ZACube-1 24 May 22:23:24 22:27:32 49° 260° (W) 22:31:38 437.345
DELFI C3 24 May 22:27:29 22:31:26 83° 258° (WSW) 22:35:26 145.870
CUSAT 1 24 May 22:32:54 22:39:08 25° 63° (ENE) 22:44:45 437.405
GONETS M04 24 May 22:36:23 22:44:53 56° 90° (E) 22:53:21
HO-68 24 May 22:39:25 22:42:44 14° 272° (W) 22:46:03 435.675
BEESAT 3 24 May 22:44:32 22:47:58 29° 246° (WSW) 22:51:24 437.485
UWE-3 24 May 22:51:22 22:54:16 17° 267° (W) 22:57:08 435.000/436.395/437.385
AIST 1 24 May 22:53:04 22:57:18 46° 282° (WNW) 23:01:33
Cosmos 2499 24 May 22:53:14 22:59:43 38° 86° (E) 23:06:34 435.465 / 435.565
HUMSAT D 24 May 23:00:22 23:04:27 79° 258° (WSW) 23:08:33 437.325/437.525
AISAT 24 May 23:00:52 23:03:28 15° 63° (ENE) 23:06:05 437.250
FUNcube-1 24 May 23:04:40 23:07:43 19° 267° (W) 23:10:44 145.935
UNISAT 6 24 May 23:13:54 23:17:42 30° 97° (E) 23:21:32 437.425
ISS 24 May 23:14:35 23:17:46 55° 141° (SE) 23:20:59 145.825
PRISM 24 May 23:15:18 23:17:26 14° 297° (WNW) 23:19:33 437.425
TIGRISAT 24 May 23:22:30 23:26:27 35° 98° (E) 23:30:25 435.000
ESTCUBE 1 24 May 23:23:51 23:27:57 35° 70° (ENE) 23:32:04 437.505/2401.250
UKube-1 24 May 23:26:21 23:29:19 18° 65° (ENE) 23:32:18 .
PHONESAT 2.4 24 May 23:28:05 23:29:50 14° 150° (SSE) 23:31:36 2401.200-2431.200
DANDE 24 May 23:37:29 23:45:16 40° 70° (ENE) 23:52:39 436.750
QB50P1 24 May 23:41:56 23:42:25 10° 90° (E) 23:42:53 145.935-145.965
BEESAT 2 24 May 23:42:11 23:44:04 13° 251° (WSW) 23:45:57 435.950
QB50P2 24 May 23:42:16 23:43:34 11° 90° (E) 23:44:52 145.880/145.840
POLYITAN 1 24 May 23:44:37 23:46:00 11° 90° (E) 23:47:25 437.675
AIST 2 24 May 23:44:58 23:48:57 43° 53° (NE) 23:52:54 435.215
ANTELSAT 24 May 23:54:54 23:59:12 88° 91° (E) 00:03:33 437.575/2403.000
50 SAT 24 May 23:55:34 23:59:07 56° 74° (ENE) 00:02:42 437.505
VELOX 1 24 May 23:59:26 00:03:48 58° 73° (ENE) 00:08:12 145.980
NANOSAT C BR1 25 May 00:00:15 00:02:58 17° 93° (E) 00:05:39 145.865
CUBEBUG 1 25 May 00:01:08 00:05:30 61° 74° (ENE) 00:09:54 437.445
RS-15 25 May 00:04:48 00:13:57 24° 10° (N) 00:23:15 29.354- 29.394
DX 1 25 May 00:05:22 00:09:40 58° 73° (ENE) 00:14:00 434.975-435.025
CUSAT 1 25 May 00:14:12 00:22:07 73° 264° (W) 00:28:50 437.405
SO-50 25 May 00:33:25 00:34:50 11° 106° (ESE) 00:36:15 436.795
GONETS M04 25 May 00:34:23 00:42:04 33° 290° (WNW) 00:49:46
AISAT 25 May 00:35:07 00:39:30 54° 260° (W) 00:43:54 437.250
DUCHIFAT 1 25 May 00:39:25 00:43:25 43° 99° (E) 00:47:22 145.980
SPROUT 25 May 00:43:02 00:47:18 67° 75° (ENE) 00:51:35 437.525
Cosmos 2499 25 May 00:46:06 00:52:43 39° 287° (WNW) 00:59:49 435.465 / 435.565
JAS-2 25 May 00:48:09 00:52:23 16° 85° (E) 00:56:24 435.910
UNISAT 6 25 May 00:50:53 00:54:17 23° 292° (WNW) 00:57:43 437.425
ISS 25 May 00:51:40 00:54:24 24° 338° (NNW) 00:57:10 145.825
TIGRISAT 25 May 00:59:47 01:02:55 20° 293° (WNW) 01:06:04 435.000
UKube-1 25 May 01:00:58 01:05:04 41° 261° (W) 01:09:11 .
ESTCUBE 1 25 May 01:01:21 01:04:50 22° 266° (W) 01:08:21 437.505/2401.250
PHONESAT 2.4 25 May 01:03:08 01:06:10 49° 165° (SSE) 01:09:12 2401.200-2431.200
BUGSAT 1 25 May 01:11:09 01:15:03 45° 99° (E) 01:18:54 437.445
POPSAT HIP 1 25 May 01:13:43 01:17:54 68° 284° (WNW) 01:22:03 437.405
QB50P1 25 May 01:14:27 01:18:37 65° 285° (WNW) 01:22:45 145.935-145.965
QB50P2 25 May 01:15:37 01:19:46 60° 286° (WNW) 01:23:53 145.880/145.840
POLYITAN 1 25 May 01:18:03 01:22:11 58° 286° (WNW) 01:26:18 437.675
TISAT 1 25 May 01:19:16 01:23:20 47° 72° (ENE) 01:27:23 437.305
DANDE 25 May 01:20:16 01:28:17 50° 269° (W) 01:35:47 436.750
AIST 2 25 May 01:24:16 01:27:06 18° 249° (WSW) 01:29:55 435.215
NANOSAT C BR1 25 May 01:34:57 01:38:52 40° 289° (WNW) 01:42:46 145.865
VELOX 1 25 May 01:38:31 01:40:38 13° 269° (W) 01:42:45 145.980
CUBEBUG 1 25 May 01:40:22 01:42:11 12° 270° (W) 01:44:01 437.445
DX 1 25 May 01:44:15 01:46:13 13° 269° (W) 01:48:11 434.975-435.025
CUSAT 1 25 May 01:59:25 02:02:36 13° 285° (WNW) 02:05:37 437.405
Oscar 19 25 May 02:06:23 02:10:43 27° 95° (E) 02:15:00 437.125/150
Gurwin Techsat 1B 25 May 02:06:44 02:07:34 10° 88° (E) 02:08:23 435.225
SWISSCUBE 25 May 02:06:46 02:11:01 34° 69° (ENE) 02:15:18 437.505
SO-50 25 May 02:09:40 02:14:35 88° 302° (WNW) 02:19:31 436.795
ITUPSAT 1 25 May 02:11:13 02:15:26 33° 68° (ENE) 02:19:42 437.325
DUCHIFAT 1 25 May 02:16:09 02:18:46 16° 295° (WNW) 02:21:22 145.980
RS-15 25 May 02:19:00 02:30:42 47° 42° (NE) 02:42:25 29.354- 29.394
SPROUT 25 May 02:22:55 02:23:41 10° 271° (W) 02:24:27 437.525
ISS 25 May 02:29:59 02:31:43 13° 358° (N) 02:33:27 145.825
JAS-2 25 May 02:30:51 02:38:31 89° 108° (ESE) 02:45:22 435.910
BEESAT 25 May 02:36:23 02:41:02 61° 73° (ENE) 02:45:45 436.000
PHONESAT 2.4 25 May 02:39:41 02:42:50 78° 180° (S) 02:45:57 2401.200-2431.200
BUGSAT 1 25 May 02:47:46 02:50:02 15° 296° (WNW) 02:52:19 437.445
KKS-1 25 May 02:49:42 02:50:17 10° 60° (ENE) 02:50:51 437.445
TISAT 1 25 May 02:56:51 02:59:14 15° 268° (W) 03:01:36 437.305
YUBILEINY 25 May 02:57:38 03:04:20 24° 65° (ENE) 03:11:00 435.215
STARS 25 May 03:31:46 03:34:16 15° 63° (ENE) 03:36:45 437.465
Gurwin Techsat 1B 25 May 03:42:52 03:48:13 89° 104° (ESE) 03:53:32 435.225
SWISSCUBE 25 May 03:44:56 03:48:50 25° 265° (W) 03:52:47 437.505
Oscar 19 25 May 03:45:22 03:50:06 37° 291° (WNW) 03:54:46 437.125/150
ITUPSAT 1 25 May 03:49:21 03:53:18 26° 265° (W) 03:57:16 437.325
AO-7 25 May 03:52:24 03:58:23 21° 92° (E) 04:04:20 29.400- 29.500
Cosmos 2491 25 May 03:52:28 03:59:09 25° 81° (E) 04:05:50 435.465 / 435.565
SO-50 25 May 03:52:46 03:55:47 16° 322° (NW) 03:58:48 436.795
Cosmos 2504 25 May 04:00:50 04:05:46 16° 62° (ENE) 04:10:49 435.465 / 435.565
ISS 25 May 04:06:34 04:09:05 20° 18° (NNE) 04:11:37 145.825
MOZHAYETS 4 25 May 04:14:56 04:19:22 56° 73° (ENE) 04:23:51
PHONESAT 2.4 25 May 04:16:29 04:19:27 40° 198° (SSW) 04:22:24 2401.200-2431.200
BEESAT 25 May 04:16:45 04:19:13 14° 269° (W) 04:21:42 436.000
JAS-2 25 May 04:17:18 04:22:24 20° 305° (NW) 04:27:15 435.910
ITAMSAT 1 25 May 04:19:41 04:24:56 78° 104° (ESE) 04:30:09 435.822/435.867
KKS-1 25 May 04:21:40 04:26:08 86° 255° (WSW) 04:30:38 437.445
RS-15 25 May 04:31:45 04:43:47 63° 246° (WSW) 04:55:45 29.354- 29.394
YUBILEINY 25 May 04:53:19 05:02:03 76° 265° (W) 05:10:47 435.215
STARS 25 May 05:05:50 05:10:10 55° 259° (W) 05:14:31 437.465
Gurwin Techsat 1B 25 May 05:25:05 05:27:23 13° 302° (WNW) 05:29:41 435.225
CUBESAT XI-V 25 May 05:32:05 05:36:28 41° 71° (ENE) 05:40:53 437.345
HORYU 2 25 May 05:39:41 05:43:39 31° 97° (E) 05:47:36 437.375
ISS 25 May 05:42:36 05:45:53 84° 217° (SW) 05:49:08 145.825
AO-7 25 May 05:43:35 05:51:58 81° 291° (WNW) 06:00:21 29.400- 29.500
Cosmos 2491 25 May 05:46:20 05:55:08 70° 280° (W) 06:03:59 435.465 / 435.565
Cosmos 2504 25 May 05:52:04 06:00:27 79° 82° (E) 06:09:16 435.465 / 435.565
MOZHAYETS 4 25 May 05:54:31 05:56:54 14° 270° (W) 05:59:16
PHONESAT 2.4 25 May 05:54:56 05:55:40 11° 213° (SSW) 05:56:25 2401.200-2431.200
AO-85 25 May 05:58:55 06:00:29 11° 105° (ESE) 06:02:02 145.980
ITAMSAT 1 25 May 06:01:00 06:03:44 15° 300° (WNW) 06:06:29 435.822/435.867
BRITE-PL 25 May 06:23:14 06:25:45 14° 87° (E) 06:28:10 437.365/2234.400
Cubesat XI-IV 25 May 06:27:26 06:29:56 13° 90° (E) 06:32:25 437.490
NOAA 15 25 May 06:32:08 06:36:12 22° 93° (E) 06:40:15 137.62
LilacSat-2 25 May 06:45:51 06:47:57 14° 92° (E) 06:50:02 437.200
RS-15 25 May 06:49:07 06:53:37 13° 267° (W) 06:58:06 29.354- 29.394
YUBILEINY 25 May 06:53:20 06:57:15 14° 286° (WNW) 07:01:12 435.215
GOMX 1 25 May 07:02:52 07:05:23 14° 88° (E) 07:07:48 467.674
CUBESAT XI-V 25 May 07:10:37 07:14:00 20° 267° (W) 07:17:26 437.345
CUTE-I 25 May 07:12:46 07:17:42 36° 97° (E) 07:22:36 437.470
HORYU 2 25 May 07:16:30 07:20:03 24° 293° (WNW) 07:23:36 437.375
STRAND 1 25 May 07:16:47 07:21:34 43° 70° (ENE) 07:26:24 437.568
AO-85 25 May 07:34:44 07:40:12 81° 121° (ESE) 07:45:35 145.980
AO-7 25 May 07:38:01 07:43:31 20° 310° (NW) 07:49:02 29.400- 29.500
NOAA 18 25 May 07:39:56 07:45:26 76° 104° (ESE) 07:50:55 137.9125
Cosmos 2504 25 May 07:47:02 07:52:57 22° 279° (W) 07:59:04 435.465 / 435.565
Cosmos 2491 25 May 07:49:29 07:53:48 14° 303° (WNW) 07:58:08 435.465 / 435.565
BRITE-PL 25 May 07:59:37 08:04:52 68° 286° (WNW) 08:09:38 437.365/2234.400
DOVE 4 25 May 08:05:09 08:09:00 28° 95° (E) 08:12:41 437.250
Cubesat XI-IV 25 May 08:05:12 08:10:34 77° 286° (WNW) 08:15:55 437.490
NOAA 15 25 May 08:11:08 08:16:11 47° 290° (WNW) 08:21:13 137.62
HO-68 25 May 08:16:02 08:20:48 19° 91° (E) 08:25:34 435.675
LilacSat-2 25 May 08:18:54 08:22:25 37° 288° (WNW) 08:25:54 437.200
PRISM 25 May 08:27:49 08:31:39 38° 71° (ENE) 08:35:31 437.425
CUTE 1.7 + AOD 2 25 May 08:35:24 08:38:13 17° 92° (E) 08:41:01 437.475
GOMX 1 25 May 08:39:14 08:43:57 55° 287° (WNW) 08:48:18 467.674
Cosmos 2499 25 May 08:44:07 08:48:52 16° 60° (ENE) 08:53:41 435.465 / 435.565
GONETS M04 25 May 08:47:04 08:54:12 27° 67° (ENE) 09:01:15
CUTE-I 25 May 08:53:02 08:57:36 30° 294° (WNW) 09:02:11 437.470
CINEMA 3 25 May 08:56:33 09:00:13 29° 96° (E) 09:03:49 145.822/145.860
STRAND 1 25 May 08:57:01 09:00:56 22° 266° (W) 09:04:51 437.568
AIST 1 25 May 08:59:59 09:04:08 40° 78° (ENE) 09:08:12
SO-50 25 May 09:02:18 09:04:52 14° 37° (NE) 09:07:22 436.795
AUBIESAT-1 25 May 09:07:03 09:10:01 30° 103° (ESE) 09:12:57 437.475
COMPASS 1 25 May 09:07:18 09:10:23 20° 93° (E) 09:13:28 437.405
M-CUBED/EXP-1 PRIME 25 May 09:11:04 09:14:14 43° 104° (ESE) 09:17:21 437.505
AAUSAT CUBESAT 2 25 May 09:12:48 09:15:43 18° 93° (E) 09:18:36 437.432
AO-85 25 May 09:17:22 09:21:19 20° 319° (NW) 09:25:11 145.980
NOAA 18 25 May 09:22:14 09:25:26 16° 301° (WNW) 09:28:37 137.9125
O/OREOS (USA 219) 25 May 09:30:29 09:31:30 11° 97° (E) 09:32:31 437.305
CANX-2 25 May 09:42:11 09:46:28 74° 284° (WNW) 09:50:44 2200.000
DOVE 4 25 May 09:42:59 09:46:37 25° 293° (WNW) 09:50:06 437.250
Cubesat XI-IV 25 May 09:48:30 09:49:44 11° 303° (WNW) 09:50:57 437.490
SEEDS 25 May 09:50:33 09:54:49 87° 99° (E) 09:59:04 437.485
HO-68 25 May 10:02:03 10:09:14 79° 288° (WNW) 10:16:24 435.675
Oscar 11 25 May 10:03:03 10:06:44 26° 95° (E) 10:10:24 145.826/435.025
PRISM 25 May 10:04:21 10:07:06 17° 267° (W) 10:09:53 437.425
CUBEBUG 2 25 May 10:04:35 10:08:40 52° 100° (E) 10:12:44 437.445
DELFI C3 25 May 10:06:50 10:08:40 13° 91° (E) 10:10:31 145.870
CUTE 1.7 + AOD 2 25 May 10:10:12 10:14:13 41° 288° (WNW) 10:18:14 437.475
ZACube-1 25 May 10:11:41 10:15:19 28° 96° (E) 10:18:58 437.345
UNISAT 6 25 May 10:12:55 10:16:39 28° 69° (ENE) 10:20:20 437.425
TIGRISAT 25 May 10:21:15 10:25:09 32° 70° (ENE) 10:28:59 435.000
CINEMA 3 25 May 10:33:58 10:37:14 22° 293° (WNW) 10:40:27 145.822/145.860
Cosmos 2499 25 May 10:34:53 10:43:27 74° 81° (E) 10:52:19 435.465 / 435.565
AIST 1 25 May 10:38:39 10:41:21 16° 274° (W) 10:44:02
UWE-3 25 May 10:39:00 10:43:10 90° 291° (WNW) 10:47:23 435.000/436.395/437.385
SO-50 25 May 10:41:24 10:46:08 82° 55° (NE) 10:50:41 436.795
COMPASS 1 25 May 10:42:12 10:46:02 34° 289° (WNW) 10:49:51 437.405
AUBIESAT-1 25 May 10:42:25 10:44:19 14° 299° (WNW) 10:46:11 437.475
GONETS M04 25 May 10:43:06 10:51:41 66° 268° (W) 11:00:14
HUMSAT D 25 May 10:44:46 10:47:21 16° 92° (E) 10:49:56 437.325/437.525
AAUSAT CUBESAT 2 25 May 10:47:27 10:51:20 37° 288° (WNW) 10:55:11 437.432
M-CUBED/EXP-1 PRIME 25 May 10:47:48 10:48:26 10° 301° (WNW) 10:49:04 437.505
PCSat 25 May 10:50:14 10:55:31 56° 114° (ESE) 11:00:49 145.827
FUNcube-1 25 May 10:50:55 10:55:05 77° 101° (E) 10:59:19 145.935
NANOSAT C BR1 25 May 10:53:18 10:55:26 14° 63° (ENE) 10:57:34 145.865
ANTELSAT 25 May 10:53:29 10:57:52 77° 77° (ENE) 11:02:12 437.575/2403.000
O/OREOS (USA 219) 25 May 11:05:41 11:10:14 72° 292° (WNW) 11:14:48 437.305
DUCHIFAT 1 25 May 11:31:19 11:35:04 32° 70° (ENE) 11:38:50 145.980
CUSAT 1 25 May 11:35:38 11:39:57 20° 79° (E) 11:44:51 437.405
Oscar 11 25 May 11:39:08 11:42:47 27° 291° (WNW) 11:46:26 145.826/435.025
DELFI C3 25 May 11:39:54 11:43:48 48° 287° (WNW) 11:47:41 145.870
CUBEBUG 2 25 May 11:42:48 11:44:51 13° 296° (WNW) 11:46:55 437.445
ZACube-1 25 May 11:48:09 11:51:29 24° 292° (WNW) 11:54:51 437.345
UNISAT 6 25 May 11:49:38 11:53:20 26° 264° (W) 11:56:58 437.425
HO-68 25 May 11:51:47 11:55:50 16° 307° (NW) 11:59:53 435.675
CUBEBUG 1 25 May 11:52:14 11:53:30 11° 89° (E) 11:54:46 437.445
VELOX 1 25 May 11:52:15 11:53:16 11° 89° (E) 11:54:17 145.980
TIGRISAT 25 May 11:58:25 12:01:52 22° 265° (W) 12:05:17 435.000
BUGSAT 1 25 May 12:00:44 12:04:30 32° 70° (ENE) 12:08:15 437.445
POPSAT HIP 1 25 May 12:05:45 12:10:00 88° 77° (ENE) 12:14:16 437.405
QB50P1 25 May 12:06:25 12:10:40 90° 257° (WSW) 12:14:56 145.935-145.965
QB50P2 25 May 12:07:45 12:12:01 82° 259° (W) 12:16:17 145.880/145.840
POLYITAN 1 25 May 12:10:12 12:14:28 80° 259° (W) 12:18:42 437.675
HUMSAT D 25 May 12:19:15 12:23:09 41° 288° (WNW) 12:27:04 437.325/437.525
SO-50 25 May 12:24:46 12:25:51 11° 254° (WSW) 12:26:56 436.795
AISAT 25 May 12:25:37 12:29:25 27° 96° (E) 12:33:08 437.250
NANOSAT C BR1 25 May 12:26:33 12:30:42 55° 260° (W) 12:34:52 145.865
Cosmos 2499 25 May 12:29:22 12:35:45 24° 279° (W) 12:42:19 435.465 / 435.565
SPROUT 25 May 12:31:23 12:32:40 11° 90° (E) 12:33:58 437.525
BEESAT 3 25 May 12:34:39 12:38:21 42° 117° (ESE) 12:42:06 437.485
PCSat 25 May 12:34:52 12:39:14 24° 313° (NW) 12:43:39 145.827
JAS-2 25 May 12:41:21 12:48:08 44° 66° (ENE) 12:55:24 435.910
GONETS M04 25 May 12:44:37 12:46:40 11° 288° (WNW) 12:48:43
DANDE 25 May 12:46:28 12:51:01 31° 85° (E) 12:56:46 436.750
UKube-1 25 May 12:48:03 12:51:53 30° 97° (E) 12:55:41 .
ESTCUBE 1 25 May 12:52:25 12:57:00 78° 102° (ESE) 13:01:32 437.505/2401.250
50 SAT 25 May 12:58:20 13:02:04 74° 103° (ESE) 13:05:47 437.505
DUCHIFAT 1 25 May 13:07:36 13:10:48 21° 266° (W) 13:14:02 145.980
CUSAT 1 25 May 13:14:58 13:20:58 72° 282° (WNW) 13:28:30 437.405
Oscar 19 25 May 13:23:00 13:27:48 39° 69° (ENE) 13:32:38 437.125/150
VELOX 1 25 May 13:25:47 13:30:12 69° 286° (WNW) 13:34:35 145.980
CUBEBUG 1 25 May 13:25:52 13:30:13 65° 286° (WNW) 13:34:32 437.445
Gurwin Techsat 1B 25 May 13:26:14 13:29:52 19° 62° (ENE) 13:33:31 435.225
DX 1 25 May 13:29:29 13:33:50 75° 286° (WNW) 13:38:10 434.975-435.025
BEESAT 2 25 May 13:32:00 13:35:58 79° 303° (WNW) 13:39:58 435.950
BUGSAT 1 25 May 13:36:44 13:39:55 21° 266° (W) 13:43:07 437.445
ITAMSAT 1 25 May 14:01:02 14:04:01 16° 60° (ENE) 14:07:02 435.822/435.867
AISAT 25 May 14:02:04 14:05:49 27° 292° (WNW) 14:09:32 437.250
Cosmos 2491 25 May 14:03:49 14:06:26 11° 54° (NE) 14:09:02 435.465 / 435.565
SPROUT 25 May 14:04:48 14:09:02 61° 286° (WNW) 14:13:12 437.525
BEESAT 3 25 May 14:13:18 14:16:13 20° 315° (NW) 14:19:10 437.485
UKube-1 25 May 14:24:18 14:27:47 24° 293° (WNW) 14:31:15 .
JAS-2 25 May 14:26:25 14:33:05 40° 265° (W) 14:40:19 435.910
AO-85 25 May 14:28:38 14:30:33 12° 33° (NNE) 14:32:27 145.980
DANDE 25 May 14:28:45 14:33:38 37° 291° (WNW) 14:39:57 436.750
ESTCUBE 1 25 May 14:31:38 14:33:09 12° 299° (WNW) 14:34:41 437.505/2401.250
BEESAT 25 May 14:37:46 14:40:35 15° 92° (E) 14:43:22 436.000
TISAT 1 25 May 14:38:28 14:42:41 86° 106° (ESE) 14:46:50 437.305
AO-7 25 May 14:51:24 14:58:25 32° 57° (ENE) 15:05:28 29.400- 29.500
CUSAT 1 25 May 15:01:27 15:04:47 14° 305° (NW) 15:08:23 437.405
Oscar 19 25 May 15:02:57 15:07:13 25° 265° (W) 15:11:30 437.125/150
Gurwin Techsat 1B 25 May 15:04:07 15:09:20 59° 259° (W) 15:14:36 435.225
BEESAT 2 25 May 15:13:30 15:14:29 11° 322° (NW) 15:15:29 435.950
AIST 2 25 May 15:20:17 15:24:24 89° 299° (WNW) 15:28:34 435.215
ITAMSAT 1 25 May 15:37:45 15:42:54 70° 258° (WSW) 15:48:05 435.822/435.867
SWISSCUBE 25 May 15:43:52 15:48:41 81° 105° (ESE) 15:53:29 437.505
ITUPSAT 1 25 May 15:48:37 15:53:27 80° 102° (ESE) 15:58:16 437.325
Cosmos 2491 25 May 15:56:46 16:05:26 60° 78° (ENE) 16:14:00 435.465 / 435.565
YUBILEINY 25 May 15:59:43 16:06:26 26° 81° (E) 16:13:10 435.215
AO-85 25 May 16:07:23 16:12:05 67° 56° (NE) 16:16:19 145.980
MOZHAYETS 4 25 May 16:11:31 16:13:45 13° 90° (E) 16:15:59
KKS-1 25 May 16:13:36 16:16:38 18° 93° (E) 16:19:39 437.445
BEESAT 25 May 16:14:01 16:18:43 56° 287° (WNW) 16:23:22 436.000
HORYU 2 25 May 16:37:47 16:41:38 30° 68° (ENE) 16:45:29 437.375
AO-7 25 May 16:42:31 16:50:41 62° 256° (WSW) 16:58:56 29.400- 29.500
